Regional Weather Roundup
Issued by NWS Kansas City/Pleasant Hill, MO

Home | Current Version | Previous Version | Graphics & Text | Print | Product List | Glossary Off
Versions: 1 2 3 4 5 6 7 8 9 10 11 12 13 14 15 16 17 18 19 20 21 22 23 24 25 26 27 28 29 30 31 32 33 34 35 36 37 38 39 40 41 42 43 44 45 46 47 48 49 50

000
ASUS43 KEAX 172210
RWREAX

WEATHER ROUNDUP FOR EASTERN KANSAS AND NORTHWEST MISSOURI
NATIONAL WEATHER SERVICE KANSAS CITY/PLEASANT HILL MO
400 PM CST WED DEC 17 2014

KSZ040-057-103>105-MOZ028-029-037-043-172300-
...KANSAS CITY METROPOLITAN AREA...

CITY           SKY/WX    TMP DP  RH WIND       PRES   REMARKS
K.C. INTL      CLOUDY    29  21  72 E6        30.25S WCI  23
K.C. DOWNTOWN  CLOUDY    32  20  61 NE7       30.25F WCI  26
LEES SUMMIT    CLOUDY    31  20  63 E6        30.25S WCI  25
OLATHE - IXD   CLOUDY    30  22  72 E5        30.25R WCI  25
OLATHE - OJC   CLOUDY    31  22  69 NE6       30.22F WCI  25
LAWRENCE       CLOUDY    30  20  66 E7        30.25F WCI  23

$$

MOZ001>008-011>017-020>025-030>033-038>040-044>046-053-054-172300-
...NORTHERN AND CENTRAL MISSOURI...

CITY           SKY/WX    TMP DP  RH WIND       PRES   REMARKS
ST. JOSEPH     CLOUDY    30  19  63 E6        30.28R WCI  24
MOSBY            N/A     32  23  69 NE3       30.27S
WARRENSBURG    CLOUDY    32  23  69 NE6       30.25F WCI  26
WHITEMAN AFB   CLOUDY    31  21  67 NE7       30.25F WCI  24
CLINTON        CLOUDY    32  27  80 NE6       30.25F WCI  26
SEDALIA        CLOUDY    32  24  72 N6        30.26F WCI  26
WARSAW         NOT AVBL
MARSHALL       CLOUDY    32  25  74 CALM      30.29R
CHILLICOTHE      N/A     30  21  69 NE6       30.29S WCI  24
MOBERLY        MOCLDY    32  23  69 CALM      30.27F
KIRKSVILLE     CLEAR     32  20  61 CALM      30.27F

$$

MOZ041-047>049-056>058-063>065-088>090-097-172300-
...EASTERN AND SOUTHERN MISSOURI...

CITY           SKY/WX    TMP DP  RH WIND       PRES   REMARKS
ST. LOUIS INTL MOCLDY    36  25  64 N6        30.29R WCI  31
SPIRIT OF STL  MOCLDY   N/A N/A N/A N6        30.28R
COLUMBIA       CLOUDY    33  23  66 CALM      30.26S
JEFFERSON CITY CLOUDY    35  22  58 N3        30.27F
MEXICO         MOCLDY    34  28  80 N3        30.27F
HANNIBAL       CLEAR     30  19  64 N3        30.29F
ROLLA          CLOUDY    34  21  59 MISG      30.23F
LEBANON        CLOUDY    34  25  69 NE6       30.22F WCI  29
OSAGE BEACH    CLOUDY    36  21  55 NE5       30.25F WCI  32
SPRINGFIELD    LGT RAIN  33  28  81 NE5       30.22R WCI  29
BRANSON        LGT RAIN  34  28  80 CALM      30.24R
NEVADA         CLOUDY    30  25  80 CALM      30.26R
JOPLIN         LGT RAIN  33  28  81 E5        30.21F WCI  29
WEST PLAINS    CLOUDY    39  25  57 SW5       30.24R

$$

IAZ060-094-KSZ022-034>040-054-083-096-NEZ052-066-093-172300-
...KANSAS...SOUTHEAST NEBRASKA AND IOWA...

CITY           SKY/WX    TMP DP  RH WIND       PRES   REMARKS
TOPEKA         CLOUDY    30  21  69 E5        30.25S WCI  25
MANHATTAN      CLOUDY    28  20  71 E5        30.25R WCI  23
EMPORIA        CLOUDY    29  25  85 E8        30.21R WCI  21
CHANUTE        CLOUDY    32  27  81 E5        30.21F WCI  27
WICHITA        LGTSLEET  32  28  85 E9        30.13F WCI  24
OMAHA          MOCLDY    28  16  60 CALM      30.28S
LINCOLN        CLOUDY    26  16  65 E7        30.25F WCI  18
FALLS CITY     CLOUDY    27  19  72 E5        30.26R WCI  22
LAMONI         PTCLDY    27  17  66 CALM      30.26S
DES MOINES     MOCLDY    28  13  53 CALM      30.29R

$$




USA.gov is the U.S. government's official web portal to all federal, state and local government web resources and services.